AirNav   ProFlight Series 2 Aviation Headset
 
 361 users online  

3N6 Old Bridge Airport
Old Bridge, New Jersey, USA

GOING TO OLD BRIDGE?


FAA INFORMATION EFFECTIVE 18 JUNE 2020

Location

FAA Identifier: 3N6
Lat/Long: 40-19-47.5920N 074-20-48.4330W
40-19.793200N 074-20.807217W
40.3298867,-74.3467869
(estimated)
Elevation: 87 ft. / 27 m (estimated)
Variation: 13W (2010)
From city: 5 miles S of OLD BRIDGE, NJ
Time zone: UTC -4 (UTC -5 during Standard Time)
Zip code: 08831

Airport Operations

Airport use: Open to the public
Activation date: 02/1966
Control tower: no
ARTCC: NEW YORK CENTER
FSS: MILLVILLE FLIGHT SERVICE STATION
NOTAMs facility: MIV (NOTAM-D service available)
Attendance: DAYLIGHT HOURS
Wind indicator: lighted
Segmented circle: yes
Lights: ACTVT REIL RWY 6 & 24; MIRL RWY 06/24 - CTAF.
Beacon: white-green (lighted land airport)
ACTVT ROTG BCN - CTAF.

Airport Communications

CTAF/UNICOM: 123.075
MC GUIRE APPROACH: 126.475
MC GUIRE DEPARTURE: 126.475
WX AWOS-3PT at BLM (13 nm SE): 121.625 (732-938-3330)
WX AWOS-AV at N12 (18 nm SE): 122.8 (732-363-6471)
WX AWOS-3 at LDJ (18 nm N): 124.025 (908-862-7383)

Nearby radio navigation aids

VOR radial/distance  VOR name  Freq  Var
COLr288/8.6COLTS NECK VOR/DME115.4011W
RBVr052/10.2ROBBINSVILLE VORTAC113.8010W
GXUr043/22.4MC GUIRE VORTAC110.6012W
SBJr140/23.6SOLBERG VOR/DME112.9010W
ARDr090/26.1YARDLEY VOR/DME108.2010W
CRIr242/26.7CANARSIE VOR/DME112.3011W
CYNr017/31.0COYLE VORTAC113.4010W
JFKr247/31.9KENNEDY VOR/DME115.9012W
TEBr214/33.7TETERBORO VOR/DME108.4011W
LGAr231/34.9LA GUARDIA VOR/DME113.1012W
BWZr153/35.5BROADWAY VOR/DME114.2011W

 
NDB name  Hdg/Dist  Freq  Var  ID
LAKEHURST009/17.139611WNEL -. . .-..
CHATHAM184/24.925413WCAT -.-. .- -

Airport Services

Fuel available: 100LL
Parking: hangars and tiedowns
Airframe service: MAJOR
Powerplant service: MAJOR
Bottled oxygen: NONE
Bulk oxygen: NONE

Runway Information

Runway 6/24

Dimensions: 3594 x 50 ft. / 1095 x 15 m
Surface: asphalt, in fair condition
Runway edge lights: medium intensity
RUNWAY 6  RUNWAY 24
Latitude: 40-19.581100N40-20.004800N
Longitude: 074-21.077000W074-20.537000W
Elevation: 63.0 ft.86.0 ft.
Traffic pattern: leftright
Runway heading: 057 magnetic, 044 true237 magnetic, 224 true
Displaced threshold: 600 ft.400 ft.
Markings: nonprecision, in good conditionnonprecision, in good condition
Visual slope indicator: 2-light PAPI on left (4.00 degrees glide path)2-light PAPI on right (4.00 degrees glide path)
Runway end identifier lights: yesyes
Touchdown point: yes, no lightsyes, no lights
Obstructions: 80 ft. tree, 280 ft. from runway, 200 ft. right of centerline, 1:1 slope to clear
16 FT HNGR 53 FT FROM RWY END 200 FT L OF CNTRLN; 25 FT TREELINE 125 FT FROM RWY END ACRS CNTRLN.
40 ft. tree, 400 ft. from runway, 135 ft. left of centerline, 5:1 slope to clear
APCH SLOPE 20:1 TO DSPLCD THLD.

Airport Ownership and Management from official FAA records

Ownership: Privately-owned
Owner: MADISON INC.
182 PENSION RD
ENGLISHTOWN, NJ 07726
Phone 732-446-0303
Manager: PAUL CERNIGLIA
182 PENSION RD
ENGLISHTOWN, NJ 07726
Phone 732-446-0303

Airport Operational Statistics

Aircraft based on the field: 98
Single engine airplanes: 91
Multi engine airplanes: 6
Helicopters: 1
    
Aircraft operations: avg 40/day *
69% local general aviation
31% transient general aviation
* for 12-month period ending 30 April 2019

Additional Remarks

NO TOUCH & GO.
GCO AVBL ON FREQ 121.725 THRU MIV RADIO.
DRAG STRIP PARK & TREES E/W OF ARPT & INVOF APCH END RWY 6/24.
FOR CD USE GCO 121.725, IF UNABLE CTC MC GUIRE APCH AT 609-754-2767.
DEER & BIRDS ON & INVOF ARPT.

Instrument Procedures

NOTE: All procedures below are presented as PDF files. If you need a reader for these files, you should download the free Adobe Reader.

NOT FOR NAVIGATION. Please procure official charts for flight.
FAA instrument procedures published for use from 18 June 2020 at 0901Z to 16 July 2020 at 0900Z.

 
IAPs - Instrument Approach Procedures
RNAV (GPS) RWY 06   download (202KB)
RNAV (GPS) RWY 24   download (200KB)
VOR RWY 24   download (227KB)
NOTE: Special Take-Off Minimums/Departure Procedures apply   download (150KB)

Other nearby airports with instrument procedures:

KBLM - Monmouth Executive Airport (13 nm SE)
N87 - Trenton-Robbinsville Airport (14 nm SW)
39N - Princeton Airport (15 nm W)
47N - Central Jersey Regional Airport (16 nm NW)
N12 - Lakewood Airport (18 nm SE)
KNEL - Lakehurst Maxfield Field Airport (18 nm S)
KLDJ - Linden Airport (18 nm N)
 
Loc | Ops | Rwys | IFR | FBO | Links
Com | Nav | Svcs | Stats | Notes
Area around 3N6 (Old Bridge Airport)
 
Road maps at: MapQuest Bing Google
 
Aerial photo
WARNING: Photo may not be current or correct
Aerial photo of 3N6 (Old Bridge Airport)
Photo by Coleen Abrams
Photo taken 30-Sep-2007

Do you have a better or more recent aerial photo of Old Bridge Airport that you would like to share? If so, please send us your photo.

 
Sectional chart

 
Airport distance calculator
Flying to Old Bridge Airport? Find the distance to fly.

From to 3N6

Sunrise and sunset
Times for 10-Jul-2020
 Local
(UTC-4)
 Zulu
(UTC)
Morning civil twilight05:0609:06
Sunrise05:3809:38
Sunset20:2700:27
Evening civil twilight21:0001:00

Current date and time
Zulu (UTC)  10-Jul-2020 06:33:50
Local (UTC-4)  10-Jul-2020 02:33:50
 
METAR
KBLM 
14nm SE 
AWOS-3 121.625 732-938-3330
100613Z AUTO 07006KT 10SM BKN009 OVC015 24/ A2998 RMK AO2 CIG 006V012
KLDJ 
18nm N 
100615Z AUTO 00000KT 10SM SCT012 A2998 RMK AO2
KNEL 
19nm S 
100623Z AUTO 10SM SCT013 SCT025 BKN033 A2995 RMK AO2 $
KTTN 
22nm W 
ASOS 133.70 609-538-8690
100553Z AUTO 04005KT 10SM BKN006 23/22 A2997 RMK AO2 SLP140 T02280222 10278 20228 51002
KWRI 
22nm SW 
100556Z AUTO 05006KT 10SM CLR 23/23 A2996 RMK AO2 SLP144 T02260226 10267 20221 55004
KSMQ 
23nm NW 
ASOS 120.60 908-722-2139
100618Z AUTO 00000KT 4SM BR CLR 21/21 A2996 RMK AO2 T02110206
KEWR 
23nm N 
100610Z 09004KT 10SM BKN014 BKN250 26/23 A2998 RMK AO2 T02560228
KMJX 
24nm S 
AWOS-3 119.875 732-244-4450
100556Z AUTO 08004KT 10SM BKN013 24/23 A2997 RMK AO2 SLP150 T02440233 10261 20228 58004
KJRB 
27nm NE 
100613Z AUTO 07006KT 10SM SCT013 25/22 A2999 RMK AO2
KMMU 
27nm N 
100615Z AUTO 00000KT 2SM BR CLR 21/20 A2999 RMK AO2 VIS 1/2V5
TAF
KTTN 
22nm W 
100541Z 1006/1106 07004KT P6SM SCT010 TEMPO 1006/1009 BKN010 FM100900 07005KT P6SM VCSH OVC010 FM101200 06010KT 4SM SHRA BR SCT007 OVC010 FM101600 05010G20KT 1 1/2SM +SHRA OVC008 FM102200 05010G22KT 3SM SHRA OVC010 FM110200 VRB04KT 3SM BR OVC010
KWRI 
22nm SW 
100530Z 1005/1108 10006KT 9999 SCT035 BKN250 QNH2995INS BECMG 1006/1007 09006KT 9999 VCSH SCT008 BKN015 OVC030 QNH2993INS BECMG 1007/1008 08010G18KT 8000 -SHRA BKN008 OVC015 QNH2990INS BECMG 1010/1011 07012G22KT 6000 SHRA BR OVC008 QNH2988INS BECMG 1012/1013 06018G30KT 3200 +SHRA OVC006 QNH2972INS TEMPO 1015/1019 04020G35KT +SHRA VCTS OVC005CB BECMG 1021/1022 02010G18KT 8000 -SHRA SCT007 OVC015 QNH2968INS BECMG 1101/1102 27008KT 9999 NSW BKN020 QNH2968INS TX27/1020Z TN22/1007Z
KEWR 
23nm N 
100546Z 1006/1112 08005KT P6SM SCT015 BKN250 FM100900 06007KT P6SM BKN015 FM101300 07011KT 5SM -SHRA BR BKN008 FM101600 07014G22KT 3SM SHRA BR SCT008 OVC015 PROB30 1018/1022 1SM +TSRA BKN008 OVC015CB FM102200 09034G44KT 3SM SHRA BR SCT008 OVC015 PROB30 1022/1102 1SM +TSRA BKN008 OVC015CB FM110300 23025G35KT 3SM SHRA BR BKN015 OVC025
NOTAMs
Click for the latest NOTAMs
NOTAMs are issued by the DoD/FAA and will open in a separate window not controlled by AirNav.

 

 
 

FBO, Fuel Providers, and Aircraft Ground Support

  
 Business Name 
 
 Contact 
 
 Services / Description 
 
Fuel Prices
 
Comments
  
Old Bridge Airport 732-446-0303
[web site]
[email]
Airport management, Aviation fuel, Aircraft parking (ramp or tiedown), Hangar leasing / sales, Pilots lounge / snooze room, Restrooms

More info about Old Bridge Airport
Phillips 66
100LL
AS $3.90 
 Updated 01-Jul-2020
 
   4 read write
AS=Assisted/Self Service
Update Fuel Prices
 

Aviation Businesses, Services, and Facilities

  
 Business Name 
 
 Contact 
 
 Services / Description 
 
Distance
 
Comments
  
 Old Bridge Flight School
732-483-4596
[web site]
[email]
Flight training, Aircraft rental, Aerial tours / aerial sightseeing, Aerial photography, Pilot supplies, Pilots lounge / snooze room, Public telephone, Computerized weather, ...

More info about Old Bridge Flight School
on airport  
   write
 

Would you like to see your business listed on this page?

 If your business provides an interesting product or service to pilots, flight crews, aircraft, or users of the Old Bridge Airport, you should consider listing it here.  To start the listing process, click on the button below
 
Add a business
 

Other Pages about Old Bridge Airport

oldbridgeairport.com
 
Update a link
 
Copyright © AirNav, LLC. All rights reserved. Privacy Policy  Contact